Weather History for Elefsis, Greece

Change the Weather History Date:

Sunday, September 1, 2013

  Actual Average Record
Temperature  
Mean Temperature 78 °F -  
Max Temperature 87 °F 81 °F 102 °F (2003)
Min Temperature 69 °F 64 °F 64 °F (1997)
Cooling Degree Days 13    
Growing Degree Days 28 (Base 50)    
Moisture  
Dew Point 52 °F    
Average Humidity 38    
Maximum Humidity 50    
Minimum Humidity 27    
Precipitation  
Precipitation 0.00 in - - ()
Sea Level Pressure  
Sea Level Pressure 30.02 in    
Wind  
Wind Speed 3 mph ()    
Max Wind Speed 10 mph    
Max Gust Speed -    
Visibility 6.2 miles    
Events      
Averages and records for this station are not official NWS values.
T = Trace of Precipitation, MM = Missing Value Source: Averaged Metar Reports

Daily Weather History Graph

Daily Weather History Graph

Search for Another Location

Airport:

Trip Planner

Search our weather history database for the weather conditions in past years. The results will help you decide how hot, cold, wet, or windy it might be!

Date:

Astronomy

Sep. 01, 2013 Rise Set
Actual Time 6:55 AM EEST 7:55 PM EEST
Civil Twilight 6:28 AM EEST 8:22 PM EEST
Nautical Twilight 5:56 AM EEST 8:54 PM EEST
Astronomical Twilight 5:23 AM EEST 9:27 PM EEST
Moon 3:02 AM EEST (9/1) 5:18 PM EEST (9/1)
Length of Visible Light 13h 53m
Length of Day
12h 59m
Waning Crescent, 16% of the Moon is Illuminated
Sep 1
Waning Crescent
Sep 5
New
Sep 12
First Quarter
Sep 19
Full
Sep 27
Last Quarter

Hourly Weather History & Observations

Time (EEST) Temp. Heat Index Dew Point Humidity Pressure Visibility Wind Dir Wind Speed Gust Speed Precip Events Conditions
12:50 AM 77.0 °F - 53.6 °F 44% 29.98 in 6.2 mi Calm Calm - N/A   Scattered Clouds
1:50 AM 73.4 °F - 53.6 °F 50% 30.01 in 6.2 mi Calm Calm - N/A   Scattered Clouds
2:50 AM 73.4 °F - 51.8 °F 47% 29.98 in 6.2 mi NW 4.6 mph - N/A   Scattered Clouds
3:50 AM 75.2 °F - 50.0 °F 41% 30.01 in 6.2 mi Calm Calm - N/A   Scattered Clouds
4:50 AM 73.4 °F - 50.0 °F 44% 29.98 in 6.2 mi Calm Calm - N/A   Scattered Clouds
5:50 AM 69.8 °F - 50.0 °F 49% 30.01 in 6.2 mi Calm Calm - N/A   Partly Cloudy
6:20 AM 71.6 °F - 50.0 °F 46% 30.01 in 6.2 mi Calm Calm - N/A   Partly Cloudy
6:50 AM 71.6 °F - 51.8 °F 50% 30.01 in 6.2 mi NNW 6.9 mph - N/A   Partly Cloudy
7:20 AM 71.6 °F - 51.8 °F 50% 30.01 in - North 4.6 mph - N/A   Clear
7:50 AM 73.4 °F - 53.6 °F 50% 30.04 in - WNW 8.1 mph - N/A   Clear
8:20 AM 75.2 °F - 55.4 °F 50% 30.04 in - West 5.8 mph - N/A   Clear
8:50 AM 77.0 °F - 55.4 °F 47% 30.04 in - NW 4.6 mph - N/A   Clear
9:20 AM 78.8 °F - 55.4 °F 44% 30.04 in - Calm Calm - N/A   Clear
9:50 AM 80.6 °F 80.3 °F 53.6 °F 39% 30.04 in - North 8.1 mph - N/A   Clear
10:20 AM 80.6 °F 80.3 °F 53.6 °F 39% 30.04 in - North 9.2 mph - N/A   Clear
10:50 AM 82.4 °F - 51.8 °F 35% 30.04 in 6.2 mi NNW 8.1 mph - N/A   Partly Cloudy
11:20 AM 82.4 °F - 50.0 °F 32% 30.04 in 6.2 mi NNW 8.1 mph - N/A   Scattered Clouds
11:50 AM 84.2 °F - 51.8 °F 33% 30.06 in 6.2 mi WNW 3.5 mph - N/A   Partly Cloudy
12:20 PM 84.2 °F - 50.0 °F 30% 30.04 in 6.2 mi North 3.5 mph - N/A   Partly Cloudy
12:50 PM 86.0 °F - 50.0 °F 29% 30.04 in 6.2 mi WNW 4.6 mph - N/A   Scattered Clouds
1:20 PM 86.0 °F - 50.0 °F 29% 30.04 in 6.2 mi South 4.6 mph - N/A   Partly Cloudy
1:50 PM 84.2 °F - 51.8 °F 33% 30.04 in 6.2 mi SSW 8.1 mph - N/A   Scattered Clouds
2:20 PM 86.0 °F - 51.8 °F 31% 30.01 in 6.2 mi South 9.2 mph - N/A   Scattered Clouds
2:50 PM 87.8 °F - 50.0 °F 27% 30.01 in 6.2 mi SSW 9.2 mph - N/A   Scattered Clouds
3:20 PM 86.0 °F - 50.0 °F 29% 30.01 in 6.2 mi South 8.1 mph - N/A   Scattered Clouds
3:50 PM 87.8 °F - 50.0 °F 27% 29.98 in 6.2 mi SW 8.1 mph - N/A   Scattered Clouds
4:20 PM 86.0 °F - 51.8 °F 31% 29.98 in 6.2 mi South 8.1 mph - N/A   Scattered Clouds
4:50 PM 87.8 °F - 51.8 °F 29% 29.98 in 6.2 mi South 6.9 mph - N/A   Scattered Clouds
5:20 PM 86.0 °F - 51.8 °F 31% 29.98 in 6.2 mi SSW 6.9 mph - N/A   Partly Cloudy
5:50 PM 84.2 °F - 51.8 °F 33% 29.98 in 6.2 mi SSW 6.9 mph - N/A   Partly Cloudy
6:20 PM 84.2 °F - 51.8 °F 33% 29.98 in 6.2 mi South 10.4 mph - N/A   Partly Cloudy
6:50 PM 84.2 °F - 51.8 °F 33% 29.98 in 6.2 mi South 5.8 mph - N/A   Partly Cloudy
7:20 PM 82.4 °F - 51.8 °F 35% 30.01 in - SSW 5.8 mph - N/A   Clear
7:50 PM 80.6 °F - 51.8 °F 37% 30.01 in - Calm Calm - N/A   Clear
8:20 PM 78.8 °F - 53.6 °F 42% 30.01 in - Calm Calm - N/A   Clear
8:50 PM 78.8 °F - 51.8 °F 39% 30.01 in - Calm Calm - N/A   Clear
9:20 PM 78.8 °F - 53.6 °F 42% 30.01 in - Calm Calm - N/A   Clear
9:50 PM 77.0 °F - 51.8 °F 41% 30.04 in - Calm Calm - N/A   Clear
10:20 PM 77.0 °F - 51.8 °F 41% 30.04 in - Calm Calm - N/A   Clear
10:50 PM 77.0 °F - 50.0 °F 39% 30.04 in - Calm Calm - N/A   Clear
11:20 PM 75.2 °F - 50.0 °F 41% 30.04 in - Calm Calm - N/A   Clear
11:50 PM 73.4 °F - 48.2 °F 41% 30.04 in - Calm Calm - N/A   Clear